STARLINK-11503 [DTC] (63142 NORAD) Tracking and Keplerian Element Data

This shows tracking and keplerian element data for the satellite.

Feedback or suggestion? Click here.




ElementValue
Catalog63142
NameSTARLINK-11503 [DTC]
Epoch Orbit4677
Epoch Day354.06377772
Epoch Year2025
RAAN10.2604
Inclination43.0004
Eccentricity0.0002762
Argument of Perigee219.548
Mean Anonmoly140.5187
Mean Motion15.7115441
Decay Rate0.0020067
L11 63142U 25043L 25354.06377772 .00200670 00000+0 15097-2 0 9996
L22 63142 43.0004 10.2604 0002762 219.5480 140.5187 15.71154410 46777



Live tracking and technical data element details for STARLINK-11503 [DTC] (NORAD 63142). STARLINK-11503 [DTC] can be tracked NOW for your location showing map with azimuth and elevation plus other details from your city location.







IsCatalogInMostPopularTable: catalog: 63142, numindb: 2
Update: records affected: 1



GetName: 63142 STARLINK-11503 [DTC]

Hit Count: updated at: Sat, 07 Feb 2026 08:12:37 GMT